^^
Saratoga-Weather Station Historical Data
Daily Summary for October 01, 2022 Units:  English    Metric   Both
Daily Weekly Monthly Yearly Custom
  High: Low: Average:
Temperature: 63 °F 46.8 °F 54.7 °F
Dew Point: 57.6 °F 44.1 °F 51.4 °F
Humidity: 94% 77% 89%
Wind Speed: 11mph 0mph 3.5mph
Wind Gust: 19mph - -
Wind- - WSW
Pressure: 30 in 29.7 in -
Precipitation: 0.91 in    
Historical Graphs
 
 
Tabular Data for October 01, 2022
Time Temperature Dew Point Pressure Wind Wind Speed Wind Gust Humidity Rainfall Rate (Hourly) solar
00:04 46.8 °F 44.1 °F 29.9 in Calm     90% 0 in 0 W/m2
00:09 46.8 °F 44.1 °F 29.9 in Calm     90% 0 in 0 W/m2
00:14 46.9 °F 44.2 °F 29.9 in Calm   2 mph 90% 0 in 0 W/m2
00:19 47.1 °F 44.4 °F 29.9 in Calm     90% 0 in 0 W/m2
00:24 47.5 °F 44.8 °F 29.9 in SSW 0.9 mph 2 mph 90% 0 in 0 W/m2
00:29 47.7 °F 45 °F 29.9 in SSW 0.9 mph 2 mph 90% 0 in 0 W/m2
00:34 47.7 °F 45 °F 29.9 in Calm   3 mph 90% 0 in 0 W/m2
00:39 48 °F 45 °F 29.9 in Calm   1 mph 89% 0 in 0 W/m2
00:44 48.2 °F 45.1 °F 29.9 in Calm   3 mph 89% 0 in 0 W/m2
00:49 48.6 °F 45.1 °F 29.9 in NNE 2.9 mph 3 mph 88% 0 in 0 W/m2
00:54 48.9 °F 45.1 °F 29.9 in North 0.9 mph 2 mph 87% 0 in 0 W/m2
00:59 49.3 °F 45.5 °F 29.9 in North 0.9 mph 2 mph 87% 0 in 0 W/m2
01:04 49.6 °F 45.7 °F 29.9 in Calm   1 mph 86% 0 in 0 W/m2
01:09 50 °F 45.7 °F 29.9 in North 2 mph 4 mph 85% 0 in 0 W/m2
01:14 50.5 °F 45.9 °F 29.9 in Calm   3 mph 84% 0 in 0 W/m2
01:19 50.7 °F 45.7 °F 29.9 in NW 0.9 mph 2 mph 83% 0 in 0 W/m2
01:24 51.3 °F 46 °F 29.9 in SSE 2.9 mph 4 mph 82% 0 in 0 W/m2
01:29 51.8 °F 45.9 °F 29.9 in NNE 2 mph 4 mph 80% 0 in 0 W/m2
01:34 52.2 °F 45.9 °F 29.9 in NW 0.9 mph 4 mph 79% 0 in 0 W/m2
01:39 52.3 °F 46 °F 29.9 in Calm   2 mph 79% 0 in 0 W/m2
01:44 52.5 °F 45.9 °F 29.9 in SSW 2.9 mph 3 mph 78% 0 in 0 W/m2
01:49 52.5 °F 45.9 °F 29.9 in WNW 2 mph 6 mph 78% 0 in 0 W/m2
01:54 52.5 °F 45.9 °F 29.9 in SW 2 mph 4 mph 78% 0 in 0 W/m2
01:59 52.5 °F 45.5 °F 29.9 in NW 4 mph 5 mph 77% 0 in 0 W/m2
02:04 52.5 °F 45.5 °F 29.9 in ENE 2.9 mph 4 mph 77% 0 in 0 W/m2
02:09 52.5 °F 45.9 °F 29.8 in NNW 4 mph 7 mph 78% 0 in 0 W/m2
02:14 52.3 °F 45.7 °F 29.8 in Calm   2 mph 78% 0 in 0 W/m2
02:19 52.3 °F 45.7 °F 29.8 in NNE 4 mph 4 mph 78% 0 in 0 W/m2
02:24 52.2 °F 45.5 °F 29.8 in ENE 2 mph 4 mph 78% 0 in 0 W/m2
02:29 52.2 °F 45.5 °F 29.8 in SW 4 mph 8 mph 78% 0 in 0 W/m2
02:34 52.2 °F 45.5 °F 29.8 in North 2.9 mph 3 mph 78% 0 in 0 W/m2
02:39 52.2 °F 45.9 °F 29.8 in NW 2 mph 3 mph 79% 0 in 0 W/m2
02:44 52.2 °F 45.9 °F 29.8 in ENE 2 mph 7 mph 79% 0 in 0 W/m2
02:49 52.2 °F 45.9 °F 29.8 in WNW 0.9 mph 5 mph 79% 0 in 0 W/m2
02:54 52.2 °F 45.9 °F 29.8 in NNW 2 mph 4 mph 79% 0 in 0 W/m2
02:59 52.2 °F 45.9 °F 29.8 in NNW 2 mph 4 mph 79% 0 in 0 W/m2
03:04 52 °F 45.7 °F 29.8 in North 2.9 mph 3 mph 79% 0 in 0 W/m2
03:09 52 °F 46 °F 29.8 in ENE 0.9 mph 2 mph 80% 0 in 0 W/m2
03:14 51.8 °F 45.9 °F 29.8 in NNE 2.9 mph 6 mph 80% 0 in 0 W/m2
03:19 51.6 °F 46 °F 29.8 in NE 0.9 mph 3 mph 81% 0 in 0 W/m2
03:24 51.6 °F 46 °F 29.8 in NNW 2 mph 4 mph 81% 0 in 0 W/m2
03:29 51.4 °F 46.2 °F 29.8 in North 2 mph 3 mph 82% 0.01 in 0 W/m2
03:34 51.3 °F 46.2 °F 29.8 in NNW 0.9 mph 1 mph 83% 0.01 in 0 W/m2
03:39 51.1 °F 46.4 °F 29.8 in NNW 0.9 mph 4 mph 84% 0.02 in 0 W/m2
03:44 50.9 °F 46.6 °F 29.8 in WNW 6.9 mph 8 mph 85% 0.02 in 0 W/m2
03:49 50.5 °F 46.6 °F 29.8 in ENE 0.9 mph 4 mph 86% 0.03 in 0 W/m2
03:54 50.4 °F 46.4 °F 29.8 in North 0.9 mph 3 mph 86% 0.04 in 0 W/m2
03:59 50.2 °F 46.4 °F 29.8 in NNE 2 mph 4 mph 87% 0.04 in 0 W/m2
04:04 50 °F 46.6 °F 29.8 in NW 2 mph 3 mph 88% 0.05 in 0 W/m2
04:09 49.8 °F 46.4 °F 29.8 in NNE 0.9 mph 2 mph 88% 0.05 in 0 W/m2
04:14 49.6 °F 46.6 °F 29.8 in Calm   3 mph 89% 0.05 in 0 W/m2
04:19 49.6 °F 46.6 °F 29.8 in NE 0.9 mph 6 mph 89% 0.05 in 0 W/m2
04:24 49.6 °F 46.6 °F 29.8 in Calm   3 mph 89% 0.05 in 0 W/m2
04:29 49.6 °F 46.6 °F 29.8 in NE 2 mph 5 mph 89% 0.04 in 0 W/m2
04:34 49.6 °F 46.8 °F 29.8 in NE 2.9 mph 4 mph 90% 0.05 in 0 W/m2
04:39 49.6 °F 46.8 °F 29.8 in NNW 0.9 mph 11 mph 90% 0.04 in 0 W/m2
04:44 49.6 °F 46.8 °F 29.8 in NE 2 mph 5 mph 90% 0.04 in 0 W/m2
04:49 49.6 °F 46.8 °F 29.8 in NNE 4.9 mph 11 mph 90% 0.03 in 0 W/m2
04:54 49.6 °F 46.8 °F 29.8 in ENE 2.9 mph 6 mph 90% 0.02 in 0 W/m2
04:59 49.8 °F 46.9 °F 29.8 in NNW 2 mph 4 mph 90% 0.02 in 0 W/m2
05:04 49.8 °F 46.9 °F 29.8 in NNW 4 mph 4 mph 90% 0.02 in 0 W/m2
05:09 49.8 °F 46.9 °F 29.8 in NNE 0.9 mph 5 mph 90% 0.02 in 0 W/m2
05:14 49.8 °F 46.9 °F 29.8 in North 2.9 mph 4 mph 90% 0.02 in 0 W/m2
05:19 49.8 °F 46.9 °F 29.8 in WNW 2.9 mph 5 mph 90% 0.02 in 0 W/m2
05:24 49.8 °F 47.3 °F 29.8 in NE 2.9 mph 5 mph 91% 0.03 in 0 W/m2
05:29 49.8 °F 47.3 °F 29.8 in NNE 2.9 mph 12 mph 91% 0.03 in 0 W/m2
05:34 49.8 °F 47.3 °F 29.8 in NNE 2 mph 5 mph 91% 0.03 in 0 W/m2
05:39 49.8 °F 47.3 °F 29.8 in North 2 mph 12 mph 91% 0.04 in 0 W/m2
05:44 49.8 °F 47.3 °F 29.8 in NNE 2 mph 4 mph 91% 0.04 in 0 W/m2
05:49 49.8 °F 47.3 °F 29.8 in ESE 4 mph 10 mph 91% 0.06 in 0 W/m2
05:54 49.8 °F 47.3 °F 29.8 in North 2.9 mph 4 mph 91% 0.06 in 0 W/m2
05:59 49.8 °F 47.3 °F 29.8 in ESE 4.9 mph 7 mph 91% 0.07 in 0 W/m2
06:04 49.8 °F 47.7 °F 29.8 in NNE 0.9 mph 6 mph 92% 0.09 in 0 W/m2
06:09 49.6 °F 47.5 °F 29.8 in NNE 2.9 mph 5 mph 92% 0.11 in 0 W/m2
06:14 49.6 °F 47.5 °F 29.8 in NE 4 mph 9 mph 92% 0.13 in 0 W/m2
06:19 49.6 °F 47.5 °F 29.8 in NNW 2 mph 11 mph 92% 0.13 in 0 W/m2
06:24 49.6 °F 47.5 °F 29.7 in NNE 0.9 mph 9 mph 92% 0.14 in 0 W/m2
06:29 49.6 °F 47.5 °F 29.7 in North 0.9 mph 11 mph 92% 0.17 in 0 W/m2
06:34 49.6 °F 47.7 °F 29.7 in ENE 4 mph 8 mph 93% 0.17 in 0 W/m2
06:39 49.8 °F 47.8 °F 29.7 in NE 4 mph 7 mph 93% 0.17 in 0 W/m2
06:44 49.8 °F 47.8 °F 29.7 in Calm   5 mph 93% 0.18 in 0 W/m2
06:49 49.8 °F 47.8 °F 29.7 in NNW 4.9 mph 5 mph 93% 0.19 in 0 W/m2
06:54 49.8 °F 47.8 °F 29.7 in NNE 4.9 mph 5 mph 93% 0.2 in 0 W/m2
06:59 49.8 °F 47.8 °F 29.7 in NNW 4 mph 6 mph 93% 0.22 in 0 W/m2
07:04 50 °F 48 °F 29.7 in ENE 6.9 mph 7 mph 93% 0.23 in 0 W/m2
07:09 50 °F 48 °F 29.7 in NNW 4 mph 6 mph 93% 0.23 in 0 W/m2
07:14 50.2 °F 48.2 °F 29.7 in ENE 4 mph 5 mph 93% 0.22 in 0 W/m2
07:19 50.2 °F 48.2 °F 29.7 in NNW 0.9 mph 3 mph 93% 0.24 in 0 W/m2
07:24 50.2 °F 48.2 °F 29.7 in West 2 mph 3 mph 93% 0.23 in 0 W/m2
07:29 50.2 °F 48.2 °F 29.7 in ESE 2.9 mph 11 mph 93% 0.23 in 0 W/m2
07:34 50.2 °F 48.2 °F 29.8 in WSW 2.9 mph 9 mph 93% 0.24 in 0 W/m2
07:39 50.4 °F 48.7 °F 29.8 in NW 4 mph 4 mph 94% 0.24 in 0 W/m2
07:44 50.4 °F 48.7 °F 29.8 in Calm   8 mph 94% 0.24 in 0 W/m2
07:49 50.4 °F 48.7 °F 29.8 in NNW 2 mph 6 mph 94% 0.24 in 0 W/m2
07:54 50.4 °F 48.7 °F 29.8 in West 0.9 mph 4 mph 94% 0.22 in 0 W/m2
07:59 50.5 °F 48.9 °F 29.8 in NNW 2 mph 5 mph 94% 0.22 in 0 W/m2
08:05 50.5 °F 48.9 °F 29.8 in ENE 0.9 mph 3 mph 94% 0.2 in 0 W/m2
08:10 50.5 °F 48.9 °F 29.8 in NNW 2.9 mph 4 mph 94% 0.2 in 0 W/m2
08:15 50.5 °F 48.9 °F 29.7 in North 2.9 mph 5 mph 94% 0.19 in 7 W/m2
08:20 50.5 °F 48.9 °F 29.8 in North 0.9 mph 5 mph 94% 0.19 in 5 W/m2
08:25 50.7 °F 49.1 °F 29.8 in NE 2 mph 6 mph 94% 0.17 in 7 W/m2
08:30 50.7 °F 49.1 °F 29.8 in NW 2 mph 10 mph 94% 0.17 in 7 W/m2
08:35 50.7 °F 49.1 °F 29.8 in North 0.9 mph 2 mph 94% 0.17 in 9 W/m2
08:40 50.9 °F 49.3 °F 29.8 in North 4.9 mph 8 mph 94% 0.17 in 9 W/m2
08:45 51.1 °F 49.5 °F 29.8 in West 2 mph 4 mph 94% 0.14 in 9 W/m2
08:50 51.1 °F 49.5 °F 29.8 in ENE 4.9 mph 6 mph 94% 0.15 in 9 W/m2
08:55 51.1 °F 49.5 °F 29.8 in WNW 0.9 mph 2 mph 94% 0.14 in 14 W/m2
09:00 51.1 °F 49.5 °F 29.8 in SW 4.9 mph 6 mph 94% 0.13 in 18 W/m2
09:05 51.3 °F 49.6 °F 29.8 in NNW 0.9 mph 2 mph 94% 0.13 in 21 W/m2
09:10 51.3 °F 49.6 °F 29.8 in NW 0.9 mph 5 mph 94% 0.11 in 21 W/m2
09:15 51.4 °F 49.8 °F 29.8 in West 0.9 mph 5 mph 94% 0.1 in 28 W/m2
09:20 51.4 °F 49.8 °F 29.8 in NNE 4 mph 4 mph 94% 0.09 in 35 W/m2
09:25 51.6 °F 50 °F 29.7 in NE 0.9 mph 2 mph 94% 0.08 in 33 W/m2
09:30 51.8 °F 50.2 °F 29.8 in North 2.9 mph 3 mph 94% 0.06 in 28 W/m2
09:35 51.8 °F 50.2 °F 29.8 in Calm   4 mph 94% 0.06 in 30 W/m2
09:40 52 °F 50.4 °F 29.8 in NW 2 mph 4 mph 94% 0.05 in 21 W/m2
09:45 52 °F 50.4 °F 29.8 in North 2 mph 4 mph 94% 0.05 in 25 W/m2
09:50 52.2 °F 50.5 °F 29.8 in NNW 0.9 mph 9 mph 94% 0.04 in 32 W/m2
09:55 52.2 °F 50.5 °F 29.8 in SW 2.9 mph 4 mph 94% 0.03 in 37 W/m2
10:00 52.3 °F 50.7 °F 29.8 in NNW 2.9 mph 10 mph 94% 0.02 in 37 W/m2
10:05 52.3 °F 50.7 °F 29.8 in WNW 8.1 mph 10 mph 94% 0.03 in 33 W/m2
10:10 52.3 °F 50.7 °F 29.8 in ENE 4 mph 7 mph 94% 0.03 in 33 W/m2
10:15 52.5 °F 50.9 °F 29.8 in WNW 2 mph 10 mph 94% 0.03 in 33 W/m2
10:20 52.5 °F 50.9 °F 29.8 in NNW 2 mph 7 mph 94% 0.03 in 42 W/m2
10:25 52.9 °F 51.3 °F 29.8 in NW 6.9 mph 7 mph 94% 0.04 in 46 W/m2
10:30 52.9 °F 51.3 °F 29.8 in NW 0.9 mph 9 mph 94% 0.04 in 47 W/m2
10:35 53.1 °F 51.4 °F 29.8 in WSW 0.9 mph 8 mph 94% 0.03 in 56 W/m2
10:40 53.1 °F 51.4 °F 29.8 in NNW 0.9 mph 6 mph 94% 0.03 in 56 W/m2
10:45 53.2 °F 51.6 °F 29.8 in West 4 mph 7 mph 94% 0.02 in 72 W/m2
10:50 53.2 °F 51.6 °F 29.8 in SW 0.9 mph 8 mph 94% 0.02 in 70 W/m2
10:55 53.4 °F 51.8 °F 29.8 in SSW 4 mph 8 mph 94% 0.02 in 63 W/m2
11:00 53.6 °F 52 °F 29.8 in WNW 0.9 mph 3 mph 94% 0.01 in 56 W/m2
11:05 53.8 °F 52.2 °F 29.8 in NNW 2.9 mph 8 mph 94% 0.01 in 84 W/m2
11:10 54 °F 52.3 °F 29.8 in WNW 4 mph 5 mph 94% 0.01 in 54 W/m2
11:15 54 °F 52.3 °F 29.8 in WSW 0.9 mph 7 mph 94% 0.01 in 67 W/m2
11:20 54.1 °F 52.5 °F 29.8 in NW 2.9 mph 4 mph 94% 0.01 in 79 W/m2
11:25 54.3 °F 52.7 °F 29.8 in SW 8.9 mph 19 mph 94% 0 in 171 W/m2
11:30 54.7 °F 53.1 °F 29.8 in NW 4 mph 4 mph 94% 0 in 125 W/m2
11:35 55 °F 53.4 °F 29.8 in WNW 2 mph 19 mph 94% 0 in 155 W/m2
11:40 55.2 °F 53.6 °F 29.8 in NW 4.9 mph 8 mph 94% 0 in 139 W/m2
11:45 55.4 °F 53.8 °F 29.8 in SSE 0.9 mph 7 mph 94% 0 in 167 W/m2
11:50 55.6 °F 54 °F 29.8 in WNW 4 mph 8 mph 94% 0 in 123 W/m2
11:55 55.8 °F 53.8 °F 29.8 in NW 2 mph 4 mph 93% 0 in 118 W/m2
12:00 55.8 °F 53.8 °F 29.8 in West 2.9 mph 9 mph 93% 0 in 130 W/m2
12:05 55.9 °F 54 °F 29.8 in West 2.9 mph 8 mph 93% 0 in 169 W/m2
12:10 55.9 °F 54 °F 29.8 in NNW 6 mph 11 mph 93% 0 in 230 W/m2
12:15 56.5 °F 54.5 °F 29.8 in West 2.9 mph 5 mph 93% 0 in 260 W/m2
12:20 56.8 °F 54.9 °F 29.8 in WNW 4.9 mph 11 mph 93% 0 in 281 W/m2
12:25 57.6 °F 55.6 °F 29.8 in NE 2.9 mph 8 mph 93% 0 in 415 W/m2
12:30 58.3 °F 55.9 °F 29.8 in NW 6 mph 11 mph 92% 0 in 272 W/m2
12:35 58.5 °F 55.8 °F 29.8 in WSW 8.1 mph 9 mph 91% 0 in 429 W/m2
12:40 58.5 °F 55.8 °F 29.8 in WNW 4.9 mph 5 mph 91% 0 in 127 W/m2
12:45 58.5 °F 55.6 °F 29.8 in West 4 mph 7 mph 90% 0 in 91 W/m2
12:50 58.3 °F 55.4 °F 29.8 in NW 4.9 mph 8 mph 90% 0 in 137 W/m2
12:55 58.3 °F 55.6 °F 29.8 in West 2.9 mph 7 mph 91% 0 in 357 W/m2
13:00 58.5 °F 55.8 °F 29.8 in ENE 2.9 mph 9 mph 91% 0 in 63 W/m2
13:05 58.3 °F 55.4 °F 29.8 in WNW 11 mph 11 mph 90% 0 in 58 W/m2
13:10 58.3 °F 55.4 °F 29.8 in West 2.9 mph 13 mph 90% 0 in 93 W/m2
13:15 58.3 °F 55.4 °F 29.8 in WNW 4 mph 7 mph 90% 0 in 132 W/m2
13:20 59 °F 56.1 °F 29.8 in West 6.9 mph 12 mph 90% 0 in 622 W/m2
13:25 59.9 °F 57 °F 29.8 in West 10.1 mph 15 mph 90% 0 in 557 W/m2
13:30 60.6 °F 57 °F 29.8 in West 4 mph 12 mph 88% 0 in 671 W/m2
13:35 61.2 °F 57.2 °F 29.8 in West 11 mph 11 mph 87% 0 in 659 W/m2
13:40 61.5 °F 57.4 °F 29.8 in NW 10.1 mph 12 mph 86% 0 in 682 W/m2
13:45 61.7 °F 57.4 °F 29.8 in West 6 mph 12 mph 86% 0 in 661 W/m2
13:50 61.9 °F 57.4 °F 29.8 in WNW 0.9 mph 7 mph 85% 0 in 592 W/m2
13:55 61.7 °F 56.8 °F 29.8 in West 4 mph 10 mph 84% 0 in 388 W/m2
14:00 61.5 °F 57 °F 29.8 in West 6 mph 11 mph 85% 0 in 172 W/m2
14:05 61.7 °F 57.2 °F 29.8 in West 8.1 mph 10 mph 85% 0 in 98 W/m2
14:11 62.1 °F 57.2 °F 29.8 in WSW 4.9 mph 13 mph 84% 0 in 148 W/m2
14:16 62.2 °F 57 °F 29.8 in NW 10.1 mph 16 mph 83% 0 in 116 W/m2
14:21 62.6 °F 56.7 °F 29.8 in WNW 4 mph 17 mph 81% 0 in 102 W/m2
14:26 63 °F 56.7 °F 29.8 in WNW 4 mph 13 mph 80% 0 in 83 W/m2
14:31 63 °F 56.7 °F 29.8 in WNW 4 mph 17 mph 80% 0 in 79 W/m2
14:36 63 °F 56.7 °F 29.8 in NW 4.9 mph 15 mph 80% 0 in 144 W/m2
14:41 62.6 °F 56.3 °F 29.8 in SSW 8.9 mph 14 mph 80% 0 in 123 W/m2
14:46 62.4 °F 56.5 °F 29.8 in WNW 6 mph 9 mph 81% 0 in 47 W/m2
14:51 62.2 °F 56.3 °F 29.8 in SW 6.9 mph 10 mph 81% 0 in 146 W/m2
14:56 62.1 °F 56.1 °F 29.8 in WSW 4 mph 6 mph 81% 0 in 65 W/m2
15:01 61.7 °F 56.1 °F 29.8 in WSW 4 mph 9 mph 82% 0 in 130 W/m2
15:06 61.5 °F 56.3 °F 29.8 in NW 2.9 mph 5 mph 83% 0 in 156 W/m2
15:11 61.5 °F 56.7 °F 29.8 in NW 2.9 mph 4 mph 84% 0 in 130 W/m2
15:16 61.9 °F 56.7 °F 29.8 in NW 2.9 mph 10 mph 83% 0 in 98 W/m2
15:21 61.7 °F 56.8 °F 29.8 in West 6 mph 7 mph 84% 0 in 114 W/m2
15:26 61.3 °F 56.5 °F 29.8 in West 6.9 mph 10 mph 84% 0 in 84 W/m2
15:31 61 °F 56.5 °F 29.8 in WNW 2 mph 7 mph 85% 0 in 123 W/m2
15:36 60.6 °F 56.5 °F 29.8 in North 2.9 mph 4 mph 86% 0.01 in 239 W/m2
15:41 60.8 °F 56.8 °F 29.8 in WNW 4.9 mph 7 mph 87% 0.01 in 195 W/m2
15:46 61.2 °F 57.2 °F 29.8 in NW 4 mph 5 mph 87% 0.01 in 274 W/m2
15:51 61.5 °F 57.6 °F 29.8 in West 6 mph 7 mph 87% 0.01 in 313 W/m2
15:56 61.9 °F 57.6 °F 29.8 in WNW 2 mph 7 mph 86% 0.01 in 123 W/m2
16:01 61.9 °F 57.4 °F 29.8 in NW 4.9 mph 9 mph 85% 0.01 in 104 W/m2
16:06 61.5 °F 57 °F 29.8 in NNW 4 mph 9 mph 85% 0.01 in 88 W/m2
16:11 61.2 °F 57 °F 29.8 in West 10.1 mph 10 mph 86% 0.01 in 192 W/m2
16:16 60.6 °F 56.7 °F 29.8 in West 0.9 mph 5 mph 87% 0.02 in 134 W/m2
16:21 60.4 °F 56.5 °F 29.8 in West 4 mph 6 mph 87% 0.02 in 70 W/m2
16:26 60.3 °F 56.3 °F 29.9 in West 4 mph 11 mph 87% 0.03 in 44 W/m2
16:31 59.9 °F 56.3 °F 29.9 in WNW 0.9 mph 3 mph 88% 0.04 in 102 W/m2
16:36 59.7 °F 56.5 °F 29.9 in NNW 4 mph 10 mph 89% 0.04 in 98 W/m2
16:41 59.5 °F 56.3 °F 29.9 in SW 2.9 mph 9 mph 89% 0.04 in 88 W/m2
16:46 59.5 °F 56.3 °F 29.9 in West 6 mph 8 mph 89% 0.04 in 26 W/m2
16:51 59.5 °F 56.3 °F 29.9 in WNW 6.9 mph 9 mph 89% 0.06 in 26 W/m2
16:56 59.4 °F 55.8 °F 29.9 in WNW 4.9 mph 9 mph 88% 0.06 in 37 W/m2
17:01 59.2 °F 55.9 °F 29.9 in WNW 4 mph 4 mph 89% 0.09 in 23 W/m2
17:06 58.8 °F 55.9 °F 29.9 in West 2.9 mph 9 mph 90% 0.1 in 28 W/m2
17:11 58.6 °F 55.8 °F 29.9 in West 6.9 mph 7 mph 90% 0.11 in 81 W/m2
17:16 58.3 °F 55.6 °F 29.9 in WNW 4 mph 7 mph 91% 0.1 in 93 W/m2
17:21 58.3 °F 55.6 °F 29.9 in SW 6.9 mph 10 mph 91% 0.1 in 93 W/m2
17:26 58.3 °F 55.6 °F 29.9 in West 6.9 mph 10 mph 91% 0.09 in 39 W/m2
17:31 58.1 °F 55.2 °F 29.9 in SW 4.9 mph 12 mph 90% 0.08 in 49 W/m2
17:36 57.7 °F 54.9 °F 29.9 in SW 4 mph 15 mph 90% 0.08 in 81 W/m2
17:41 57.6 °F 54.3 °F 29.9 in WSW 4 mph 9 mph 89% 0.08 in 97 W/m2
17:46 57.6 °F 54.3 °F 29.9 in WNW 2.9 mph 9 mph 89% 0.08 in 70 W/m2
17:51 57.4 °F 54.1 °F 29.9 in West 6 mph 8 mph 89% 0.06 in 65 W/m2
17:56 57 °F 53.8 °F 29.9 in WNW 4 mph 11 mph 89% 0.06 in 90 W/m2
18:01 57 °F 53.8 °F 29.9 in West 6 mph 12 mph 89% 0.03 in 116 W/m2
18:06 57 °F 54.1 °F 29.9 in WSW 8.1 mph 10 mph 90% 0.02 in 51 W/m2
18:11 57.2 °F 54 °F 29.9 in WNW 4.9 mph 12 mph 89% 0.01 in 44 W/m2
18:16 57.4 °F 54.1 °F 29.9 in NW 2.9 mph 12 mph 89% 0.01 in 44 W/m2
18:21 57.2 °F 54.3 °F 29.9 in WSW 4 mph 12 mph 90% 0.01 in 35 W/m2
18:26 57.2 °F 54.3 °F 29.9 in West 4 mph 10 mph 90% 0.01 in 37 W/m2
18:31 57 °F 54.1 °F 29.9 in WSW 4.9 mph 11 mph 90% 0.01 in 33 W/m2
18:36 57 °F 54.1 °F 29.9 in WSW 4.9 mph 10 mph 90% 0 in 26 W/m2
18:41 57 °F 54.5 °F 29.9 in WNW 4 mph 9 mph 91% 0 in 23 W/m2
18:46 57 °F 54.5 °F 29.9 in West 2.9 mph 10 mph 91% 0 in 19 W/m2
18:51 56.8 °F 54.3 °F 29.9 in West 6.9 mph 10 mph 91% 0 in 14 W/m2
18:56 56.8 °F 54.3 °F 29.9 in West 6 mph 7 mph 91% 0 in 12 W/m2
19:01 56.8 °F 54.3 °F 29.9 in WNW 8.9 mph 10 mph 91% 0 in 7 W/m2
19:06 56.8 °F 54.3 °F 29.9 in WSW 2.9 mph 4 mph 91% 0 in 5 W/m2
19:11 56.8 °F 54.3 °F 29.9 in West 2 mph 8 mph 91% 0 in 5 W/m2
19:16 56.8 °F 54.3 °F 29.9 in West 2.9 mph 6 mph 91% 0 in 0 W/m2
19:21 56.7 °F 54.1 °F 29.9 in WNW 4.9 mph 8 mph 91% 0 in 0 W/m2
19:26 56.7 °F 54.1 °F 29.9 in West 2.9 mph 6 mph 91% 0 in 0 W/m2
19:31 56.7 °F 54.1 °F 29.9 in West 2 mph 6 mph 91% 0 in 0 W/m2
19:36 56.7 °F 54.1 °F 29.9 in WSW 4.9 mph 8 mph 91% 0 in 0 W/m2
19:41 56.5 °F 54 °F 29.9 in West 6 mph 10 mph 91% 0 in 0 W/m2
19:46 56.5 °F 54 °F 29.9 in WNW 2 mph 6 mph 91% 0 in 0 W/m2
19:51 56.5 °F 54.1 °F 29.9 in WNW 2.9 mph 8 mph 92% 0 in 0 W/m2
19:56 56.5 °F 54.1 °F 30 in West 2 mph 9 mph 92% 0 in 0 W/m2
20:01 56.5 °F 54.1 °F 29.9 in West 2 mph 6 mph 92% 0 in 0 W/m2
20:06 56.5 °F 54.1 °F 30 in West 4 mph 10 mph 92% 0 in 0 W/m2
20:11 56.5 °F 54.1 °F 30 in WSW 0.9 mph 9 mph 92% 0 in 0 W/m2
20:16 56.7 °F 54.3 °F 30 in West 4 mph 9 mph 92% 0 in 0 W/m2
20:21 56.7 °F 54.1 °F 30 in WNW 4.9 mph 8 mph 91% 0 in 0 W/m2
20:26 56.8 °F 54.3 °F 30 in WSW 8.1 mph 8 mph 91% 0 in 0 W/m2
20:31 56.8 °F 54.3 °F 30 in WSW 4.9 mph 12 mph 91% 0 in 0 W/m2
20:36 56.8 °F 54.3 °F 30 in WNW 6.9 mph 9 mph 91% 0 in 0 W/m2
20:41 56.8 °F 54.3 °F 30 in WSW 4.9 mph 12 mph 91% 0 in 0 W/m2
20:46 57 °F 54.5 °F 30 in WSW 6 mph 10 mph 91% 0 in 0 W/m2
20:51 57 °F 54.5 °F 30 in West 6.9 mph 8 mph 91% 0 in 0 W/m2
20:56 57.2 °F 54.7 °F 30 in West 2.9 mph 9 mph 91% 0 in 0 W/m2
21:01 57.2 °F 54.7 °F 30 in West 4 mph 8 mph 91% 0 in 0 W/m2
21:06 57.2 °F 54.7 °F 30 in WSW 6.9 mph 9 mph 91% 0 in 0 W/m2
21:11 57.2 °F 54.3 °F 30 in West 6 mph 8 mph 90% 0 in 0 W/m2
21:16 57.2 °F 54.3 °F 30 in WSW 4 mph 12 mph 90% 0 in 0 W/m2
21:21 57.2 °F 54.3 °F 30 in WSW 8.9 mph 9 mph 90% 0 in 0 W/m2
21:26 57 °F 54.1 °F 30 in WNW 6.9 mph 11 mph 90% 0 in 0 W/m2
21:31 57 °F 53.8 °F 30 in WNW 2 mph 8 mph 89% 0 in 0 W/m2
21:36 57 °F 54.1 °F 30 in West 2 mph 9 mph 90% 0 in 0 W/m2
21:41 56.8 °F 54 °F 30 in West 6.9 mph 8 mph 90% 0 in 0 W/m2
21:46 56.8 °F 54 °F 30 in West 2 mph 7 mph 90% 0 in 0 W/m2
21:51 56.8 °F 53.6 °F 30 in WNW 8.9 mph 9 mph 89% 0 in 0 W/m2
21:56 56.8 °F 53.6 °F 30 in West 2.9 mph 6 mph 89% 0 in 0 W/m2
22:01 56.7 °F 53.4 °F 30 in West 6.9 mph 11 mph 89% 0 in 0 W/m2
22:06 56.7 °F 53.4 °F 30 in West 4 mph 6 mph 89% 0 in 0 W/m2
22:11 56.5 °F 53.2 °F 30 in WSW 4.9 mph 11 mph 89% 0 in 0 W/m2
22:16 56.3 °F 53.1 °F 30 in West 6 mph 8 mph 89% 0 in 0 W/m2
22:21 56.1 °F 52.9 °F 30 in NW 4 mph 11 mph 89% 0 in 0 W/m2
22:26 56.1 °F 52.9 °F 30 in SW 8.9 mph 9 mph 89% 0 in 0 W/m2
22:31 55.9 °F 52.7 °F 30 in NW 4 mph 11 mph 89% 0 in 0 W/m2
22:36 55.9 °F 52.7 °F 30 in SSW 6 mph 10 mph 89% 0 in 0 W/m2
22:41 55.9 °F 52.7 °F 30 in WNW 2.9 mph 9 mph 89% 0 in 0 W/m2
22:46 55.9 °F 53.1 °F 30 in WNW 4 mph 10 mph 90% 0 in 0 W/m2
22:51 55.9 °F 53.1 °F 30 in WSW 2 mph 7 mph 90% 0 in 0 W/m2
22:56 55.8 °F 52.9 °F 30 in WSW 2.9 mph 10 mph 90% 0 in 0 W/m2
23:01 55.8 °F 53.2 °F 30 in WNW 4 mph 7 mph 91% 0 in 0 W/m2
23:06 55.8 °F 53.2 °F 30 in SW 2.9 mph 7 mph 91% 0 in 0 W/m2
23:11 55.8 °F 53.2 °F 30 in NW 4.9 mph 9 mph 91% 0.01 in 0 W/m2
23:16 55.8 °F 53.2 °F 30 in WNW 4 mph 6 mph 91% 0.02 in 0 W/m2
23:21 55.8 °F 53.4 °F 30 in WNW 4 mph 8 mph 92% 0.03 in 0 W/m2
23:26 55.6 °F 53.2 °F 30 in West 2 mph 9 mph 92% 0.04 in 0 W/m2
23:31 55.6 °F 53.2 °F 30 in West 2 mph 4 mph 92% 0.04 in 0 W/m2
23:36 55.6 °F 53.2 °F 30 in NW 2.9 mph 9 mph 92% 0.04 in 0 W/m2
23:41 55.6 °F 53.2 °F 30 in WSW 2.9 mph 5 mph 92% 0.04 in 0 W/m2
23:46 55.4 °F 53.1 °F 30 in WNW 2 mph 4 mph 92% 0.04 in 0 W/m2
23:51 55.2 °F 53.2 °F 30 in NW 2 mph 4 mph 93% 0.04 in 0 W/m2
23:56 55.2 °F 53.2 °F 30 in West 2 mph 2 mph 93% 0.04 in 0 W/m2
Juneau County Weather
Compliments of Weather Underground - 4 mb